Вернуться в каталог

CZ-6A DEB

АктивенPO
NORAD 60783·DEBRIS·🇨🇳 China

Запущен Aug 6, 2024 с Taiyuan Satellite Launch Center

Loading…

Ближайшие Пролёты (ближайшие 24 часа)

TLE

СвежийSource: Space-Track

Эпоха: Sep 14, 2026, 10:39 UTC

1 60783U 24140FJ  26257.44389341  .00000397  00000-0  76177-4 0  9994
2 60783  89.0493 264.3936 0125517 302.5769  56.3371 14.56827630111061

Отслеживайте CZ-6A DEB в реальном времени с AllMySat

Download on the App Store